Wind_Speed
18 18 20 21 22 23 23 23 24 24 25 24 24 24 25 25 26 26 26 27 27 26 26 26 27 27 28 28 28 28 28 28 28 29 29 30 30 31 31 31 31 32 32 33
18 19 20 21 21 21 21 22 22 23 23 23 23 23 23 24 24 24 24 24 24 24 24 25 25 25 25 26 26 26 26 27 27 28 28 29 29 29 29 29 29 30 30 30
18 19 20 20 19 20 20 21 22 22 22 23 22 21 22 22 23 23 23 23 23 23 23 23 23 23 23 23 24 24 25 25 26 27 28 29 29 28 27 27 27 27 27 27
19 19 19 17 19 19 19 19 20 20 21 21 20 20 21 22 22 22 22 21 21 21 21 20 20 20 21 21 22 22 23 24 24 25 26 26 26 26 26 26 25 25 25 25
19 19 18 17 17 18 18 18 19 19 19 19 19 20 20 21 21 21 20 20 19 19 19 19 18 18 18 19 20 20 21 22 22 23 23 23 23 23 23 24 23 23 24 24
19 19 18 16 17 18 18 18 18 19 19 19 19 20 20 20 20 20 19 19 18 17 17 17 17 17 17 18 19 19 20 21 21 21 21 21 21 21 22 22 22 23 23 23
19 19 18 17 17 18 18 17 17 18 18 19 19 19 19 19 19 19 19 19 18 17 17 17 16 17 17 18 18 19 19 20 20 19 19 19 20 20 21 22 22 23 23 23
20 20 18 18 18 18 17 17 17 17 18 18 19 19 19 19 19 19 19 18 18 18 17 17 16 16 17 17 18 18 18 19 19 19 19 20 20 21 22 23 23 23 23 23
21 20 19 19 19 19 19 18 18 18 18 19 19 19 19 19 19 19 19 18 18 18 17 17 17 17 17 17 17 18 18 19 19 19 20 21 22 23 23 24 24 24 24 25
21 21 21 21 20 20 20 20 19 19 19 19 20 20 19 19 20 20 19 19 18 18 18 17 17 17 17 17 18 18 19 19 20 21 22 23 23 24 25 25 25 25 26 26
23 23 23 22 22 22 22 22 21 21 21 21 21 21 20 20 20 20 20 20 19 19 18 18 18 18 18 19 19 20 20 21 22 23 23 24 25 25 26 26 27 27 28 28
24 25 25 24 24 24 24 24 24 24 23 23 23 23 23 22 21 21 21 21 20 20 20 20 20 20 20 20 21 22 22 23 23 24 25 25 26 27 27 28 28 29 29 30
25 25 26 25 25 26 26 26 25 25 25 25 25 25 25 24 24 23 23 23 22 21 21 21 21 21 22 22 23 23 24 24 25 25 26 27 27 28 29 29 30 30 31 32
26 26 26 25 26 26 26 27 27 27 27 26 27 27 26 26 25 25 25 25 24 24 24 23 23 23 23 24 24 25 25 26 26 27 27 28 29 29 30 30 31 32 32 33
26 26 26 26 26 26 27 27 27 27 27 28 28 28 28 27 27 27 26 26 26 26 26 26 26 26 25 26 26 26 27 27 27 28 28 29 29 30 31 31 32 32 33 34
25 25 26 26 26 26 27 27 28 28 28 28 28 29 29 29 29 29 29 28 28 28 28 28 28 28 28 28 28 28 28 28 28 28 29 29 30 31 31 32 33 33 34 35
24 24 25 25 25 26 26 27 28 28 28 29 29 29 30 30 30 30 30 30 30 30 30 30 30 29 29 29 29 29 29 29 29 30 30 30 30 31 32 33 34 34 35 36
24 24 24 25 25 25 26 27 27 28 28 29 29 29 30 30 30 30 30 30 30 30 31 31 31 31 30 30 30 30 30 30 30 31 31 31 31 32 33 34 34 34 35 36
22 23 23 24 24 24 25 26 26 27 28 28 29 29 30 30 30 30 30 30 30 31 31 31 31 31 31 31 31 31 31 31 31 31 31 32 32 33 34 34 34 35 35 37
19 19 20 21 22 23 24 24 25 26 26 27 27 28 28 29 29 29 30 30 30 30 30 31 31 31 31 31 30 30 31 31 32 32 32 33 33 34 34 34 35 36 37 38
17 17 17 18 19 20 21 22 23 24 24 25 25 26 27 27 28 28 28 29 29 29 29 29 29 30 30 30 30 30 31 32 32 32 33 33 34 34 34 35 36 37 38 40
16 16 17 17 18 19 20 21 21 22 23 23 24 24 25 26 26 27 27 27 27 28 28 28 28 29 30 30 30 30 31 32 32 33 33 34 34 34 35 36 37 38 39 40
15 16 17 17 17 18 19 20 20 21 22 22 23 23 24 25 25 26 26 26 27 27 27 27 28 28 29 29 29 30 31 31 32 33 33 34 34 35 36 37 38 39 40 41
15 15 16 16 17 18 18 19 19 20 21 22 22 23 23 24 25 25 25 25 26 26 26 26 26 27 27 28 29 30 30 31 31 31 32 33 33 34 35 37 38 39 40 41
17 17 17 18 18 18 19 19 19 19 20 21 22 22 22 23 23 24 24 25 25 26 26 27 27 27 27 27 28 29 29 30 30 31 32 32 33 34 35 37 38 39 40 41
20 20 19 19 20 20 20 20 20 21 21 21 22 22 23 23 24 24 25 25 26 26 26 27 27 27 27 27 28 28 29 29 30 31 31 32 33 35 36 38 39 40 40 41
24 24 24 24 24 23 23 23 23 23 23 24 24 24 24 25 25 25 25 26 26 26 26 26 26 27 27 27 28 28 29 30 31 31 32 33 35 36 37 38 39 39 40 41
Wind_Direction
234 233 233 234 236 237 238 237 235 236 240 239 237 236 238 239 241 243 245 247 250 253 256 259 262 265 268 271 273 274 276 278 281 284 287 290 294 298 301 304 308 311 314 317
237 236 235 236 238 239 238 238 237 237 239 240 238 237 238 240 242 245 246 249 252 256 258 261 265 267 270 272 273 275 277 280 282 285 287 290 294 298 302 305 309 312 314 317
241 241 240 238 239 239 237 235 234 234 234 237 236 236 238 240 242 245 247 250 253 256 259 263 266 268 270 272 275 277 280 283 284 286 288 290 294 297 301 305 309 312 314 319
244 243 242 238 236 236 233 233 233 232 233 236 237 237 238 240 242 244 247 249 252 255 258 263 266 269 273 274 277 280 283 286 287 289 290 291 295 297 301 305 309 311 314 319
245 243 241 238 235 234 232 231 231 232 235 237 238 238 238 240 242 244 246 248 252 255 259 263 268 272 275 278 280 282 285 288 290 292 293 294 296 299 303 307 309 312 316 318
245 244 242 237 236 234 233 233 234 236 238 239 239 240 242 243 244 245 246 247 251 255 260 266 271 274 277 280 282 284 287 290 291 292 293 295 299 302 305 308 310 313 316 318
244 244 243 239 236 235 237 239 240 241 240 240 241 243 243 243 244 245 246 248 251 256 261 267 272 276 278 281 283 286 288 290 290 291 292 296 301 305 308 309 311 313 315 317
243 243 242 240 239 240 243 243 243 244 243 243 245 245 243 244 245 246 248 250 253 257 262 268 273 276 280 283 284 286 289 290 290 290 293 297 301 305 308 310 311 312 313 314
243 243 241 242 243 242 243 245 246 247 246 245 246 246 244 244 246 247 249 252 255 258 263 267 272 276 281 283 284 286 288 289 290 291 294 297 300 303 306 308 309 310 311 312
242 242 241 242 244 245 246 248 249 249 248 247 247 247 246 246 249 249 250 253 256 260 262 267 272 276 280 283 285 286 287 288 289 291 293 297 299 302 304 306 307 308 309 310
242 243 243 243 244 246 248 250 250 251 251 249 248 248 248 249 251 252 252 254 257 260 263 267 272 276 278 282 285 287 288 289 290 291 293 296 298 300 302 304 305 307 308 309
243 244 245 245 247 248 249 250 251 252 251 251 250 249 250 251 252 253 254 255 258 261 264 267 271 275 277 281 284 286 288 289 290 292 293 295 297 298 301 303 304 305 306 307
243 244 245 245 247 248 249 249 250 251 251 251 251 250 251 252 253 255 255 256 259 262 264 267 271 274 278 280 283 285 287 289 290 292 293 294 296 297 300 302 303 305 306 307
243 244 246 247 247 248 248 248 249 250 251 252 251 251 251 252 253 255 257 258 260 262 264 267 270 274 278 280 282 284 286 288 290 292 293 294 295 297 299 301 304 305 307 308
243 245 246 247 248 249 248 248 249 249 250 251 251 251 252 253 254 255 257 258 259 262 264 267 270 273 277 280 281 283 285 287 289 291 293 294 295 297 298 301 303 305 306 307
244 245 246 247 249 249 249 249 249 249 250 251 252 251 252 253 254 255 256 257 259 262 265 267 270 273 275 278 279 281 283 285 288 290 293 294 296 297 299 300 303 304 306 307
246 246 247 248 250 251 251 250 250 250 251 252 252 253 253 253 254 255 256 258 260 262 264 266 268 271 274 276 278 279 281 283 286 289 292 294 296 298 299 301 302 304 305 307
246 248 250 251 252 252 252 252 252 252 253 253 253 253 254 254 255 255 257 259 261 262 264 265 268 270 273 275 276 277 279 281 284 288 291 293 295 297 299 300 301 303 305 307
247 250 252 253 253 254 254 255 255 255 255 255 254 254 254 255 255 256 257 260 262 263 265 267 268 270 272 273 275 277 278 280 283 286 290 292 294 296 298 300 301 303 305 307
249 251 253 255 255 255 255 256 257 256 256 255 255 255 255 256 256 257 258 259 261 263 265 267 269 270 271 272 273 275 278 280 282 285 288 291 293 295 297 299 301 303 305 307
249 251 255 258 258 257 257 257 258 257 257 256 256 256 256 257 257 258 259 260 262 264 265 267 269 271 272 272 273 275 277 279 282 285 288 291 293 294 296 298 301 303 305 307
252 255 259 262 262 261 261 260 260 260 259 258 258 258 258 258 259 259 260 261 262 265 267 268 270 271 272 273 274 276 278 280 282 285 288 291 292 294 296 298 301 303 305 307
257 259 261 263 264 265 266 266 265 263 262 261 260 260 260 260 260 261 262 263 264 266 268 270 272 272 273 274 275 276 279 281 283 286 288 290 292 294 296 298 300 303 305 307
261 263 264 265 266 268 269 269 268 267 265 264 264 264 264 263 262 263 264 266 266 268 269 271 273 274 275 275 276 278 280 283 285 287 290 291 293 295 297 300 302 304 306 307
264 265 266 266 268 269 270 271 270 270 269 269 268 268 267 266 265 265 266 268 269 270 271 272 274 276 278 278 279 280 281 283 286 288 290 292 294 296 298 301 303 305 306 308
263 265 266 268 269 271 272 273 273 272 272 274 274 272 271 271 270 270 270 270 271 272 273 273 274 275 277 278 280 281 283 285 287 289 291 293 295 297 299 302 303 304 306 308
263 265 266 268 270 271 272 274 274 274 274 275 277 275 273 272 273 272 272 273 273 274 274 275 275 276 277 279 281 282 284 286 288 290 292 295 296 298 300 302 304 305 306 308
Height
5638 5640 5642 5644 5647 5649 5652 5655 5658 5660 5662 5665 5668 5671 5673 5676 5678 5680 5683 5685 5686 5688 5689 5690 5691 5691 5691 5691 5690 5690 5689 5688 5687 5685 5684 5681 5679 5676 5672 5668 5664 5658 5653 5647
5635 5636 5638 5640 5643 5645 5647 5650 5653 5655 5658 5660 5663 5666 5668 5671 5673 5675 5677 5679 5680 5682 5683 5683 5684 5684 5684 5683 5683 5682 5682 5681 5679 5678 5676 5674 5671 5668 5665 5661 5656 5652 5647 5641
5631 5633 5634 5637 5640 5641 5643 5646 5648 5650 5655 5655 5658 5661 5664 5666 5668 5670 5672 5673 5675 5676 5676 5677 5677 5677 5677 5676 5676 5675 5674 5674 5672 5671 5669 5667 5664 5661 5658 5654 5650 5646 5641 5635
5627 5630 5631 5636 5635 5637 5639 5641 5644 5647 5649 5651 5654 5657 5659 5661 5663 5665 5666 5668 5669 5670 5670 5671 5671 5671 5670 5670 5669 5669 5668 5667 5666 5664 5662 5660 5658 5655 5652 5648 5644 5640 5635 5630
5624 5625 5628 5631 5632 5633 5635 5638 5640 5643 5645 5647 5649 5652 5654 5656 5657 5659 5661 5662 5663 5664 5665 5665 5665 5665 5664 5664 5664 5663 5662 5661 5659 5658 5656 5654 5651 5649 5646 5642 5638 5634 5630 5625
5620 5621 5624 5628 5629 5629 5633 5635 5637 5639 5641 5643 5645 5647 5650 5651 5652 5654 5655 5657 5658 5659 5659 5660 5660 5659 5659 5659 5658 5657 5656 5655 5654 5652 5650 5648 5646 5643 5640 5636 5633 5629 5625 5621
5615 5617 5620 5623 5624 5627 5630 5633 5633 5634 5636 5638 5640 5643 5644 5645 5647 5649 5650 5651 5653 5654 5654 5654 5654 5654 5654 5653 5653 5652 5651 5650 5648 5646 5645 5643 5640 5637 5634 5631 5628 5624 5620 5616
5611 5614 5619 5619 5621 5623 5626 5627 5628 5630 5632 5634 5636 5637 5639 5640 5642 5643 5645 5646 5647 5648 5649 5649 5649 5649 5648 5648 5647 5646 5645 5644 5643 5641 5639 5637 5635 5632 5629 5626 5622 5619 5615 5611
5608 5611 5613 5614 5616 5618 5620 5622 5624 5626 5627 5629 5631 5632 5634 5635 5637 5638 5640 5641 5642 5643 5644 5644 5644 5644 5643 5643 5642 5641 5640 5639 5637 5636 5634 5632 5629 5627 5624 5620 5617 5613 5610 5606
5602 5604 5607 5609 5611 5613 5615 5617 5619 5621 5623 5624 5626 5627 5629 5630 5632 5633 5634 5636 5637 5637 5638 5638 5638 5638 5638 5637 5636 5635 5634 5633 5631 5630 5628 5626 5623 5621 5618 5615 5611 5608 5604 5600
5596 5599 5601 5603 5606 5608 5610 5612 5614 5616 5617 5619 5621 5622 5624 5625 5626 5628 5629 5630 5631 5632 5632 5633 5633 5632 5632 5631 5631 5630 5628 5627 5625 5624 5622 5619 5617 5614 5611 5608 5605 5601 5598 5594
5590 5592 5595 5598 5600 5602 5604 5606 5608 5610 5611 5613 5615 5616 5618 5619 5621 5622 5623 5624 5625 5626 5626 5626 5627 5626 5626 5625 5624 5623 5622 5621 5619 5617 5615 5613 5611 5608 5605 5602 5598 5594 5591 5587
5583 5585 5588 5591 5593 5595 5597 5599 5601 5603 5605 5606 5608 5610 5611 5613 5614 5615 5616 5618 5618 5619 5620 5620 5620 5620 5619 5619 5618 5617 5615 5614 5612 5610 5608 5606 5604 5601 5598 5595 5591 5587 5583 5579
5576 5579 5581 5584 5586 5588 5590 5592 5594 5596 5597 5599 5601 5603 5604 5606 5607 5608 5610 5611 5611 5612 5613 5613 5613 5612 5612 5611 5610 5609 5608 5607 5605 5603 5601 5599 5596 5593 5590 5587 5583 5579 5576 5571
5569 5572 5574 5576 5578 5580 5582 5584 5586 5588 5590 5592 5593 5595 5597 5598 5600 5601 5602 5603 5604 5604 5605 5605 5605 5605 5605 5604 5603 5602 5601 5599 5598 5596 5593 5591 5588 5586 5582 5579 5576 5572 5568 5564
5562 5565 5567 5569 5571 5573 5575 5577 5579 5580 5582 5584 5585 5587 5588 5590 5591 5593 5594 5595 5596 5596 5597 5597 5597 5597 5597 5596 5595 5594 5593 5591 5590 5588 5586 5583 5580 5578 5574 5571 5568 5564 5560 5556
5556 5558 5560 5562 5564 5565 5567 5569 5571 5572 5574 5575 5577 5578 5580 5581 5583 5584 5585 5586 5587 5588 5588 5588 5588 5588 5588 5587 5587 5586 5584 5583 5582 5580 5577 5575 5572 5569 5566 5563 5559 5555 5551 5547
5549 5551 5553 5555 5556 5558 5559 5561 5562 5564 5565 5567 5568 5570 5571 5572 5574 5575 5576 5577 5578 5578 5579 5579 5579 5579 5579 5578 5578 5577 5576 5575 5573 5571 5569 5567 5564 5561 5558 5555 5551 5547 5543 5538
5543 5545 5546 5548 5549 5550 5552 5553 5554 5556 5557 5558 5560 5561 5562 5563 5565 5566 5567 5568 5568 5569 5569 5570 5570 5570 5570 5569 5569 5568 5567 5566 5564 5563 5560 5558 5555 5553 5549 5546 5542 5538 5534 5529
5537 5538 5540 5541 5542 5543 5544 5546 5547 5548 5549 5550 5551 5553 5554 5555 5556 5557 5558 5559 5559 5560 5560 5560 5561 5560 5560 5560 5559 5559 5558 5557 5555 5553 5552 5549 5547 5544 5541 5537 5534 5529 5525 5520
5532 5533 5534 5535 5536 5536 5537 5538 5539 5540 5541 5542 5543 5544 5545 5546 5547 5548 5549 5550 5550 5551 5551 5551 5551 5551 5551 5550 5550 5550 5549 5547 5546 5544 5542 5540 5538 5535 5532 5528 5524 5520 5516 5511
5527 5528 5529 5530 5530 5531 5531 5532 5533 5533 5534 5535 5535 5536 5537 5538 5539 5540 5540 5541 5542 5542 5542 5542 5542 5542 5542 5541 5541 5540 5539 5538 5537 5535 5533 5531 5528 5525 5522 5519 5515 5511 5506 5501
5523 5524 5524 5525 5525 5525 5526 5526 5526 5527 5527 5528 5528 5529 5530 5530 5531 5532 5532 5533 5533 5534 5534 5534 5533 5533 5533 5532 5532 5531 5530 5529 5527 5526 5524 5521 5519 5516 5513 5509 5505 5501 5496 5491
5518 5519 5519 5520 5520 5520 5520 5520 5520 5521 5521 5521 5521 5522 5522 5523 5523 5524 5524 5525 5525 5525 5525 5525 5525 5525 5524 5524 5523 5522 5521 5520 5518 5516 5514 5512 5509 5506 5503 5500 5496 5491 5487 5481
5514 5514 5514 5514 5514 5515 5515 5515 5515 5515 5515 5515 5515 5515 5515 5515 5516 5516 5516 5517 5517 5517 5517 5517 5516 5516 5515 5515 5514 5513 5512 5510 5509 5507 5505 5503 5500 5497 5494 5490 5486 5481 5477 5472
5508 5508 5508 5509 5509 5509 5509 5509 5508 5508 5508 5508 5508 5508 5508 5508 5508 5508 5508 5508 5508 5508 5508 5508 5508 5507 5507 5506 5505 5504 5503 5501 5500 5498 5496 5493 5490 5487 5484 5480 5476 5472 5467 5462
5501 5501 5502 5502 5502 5502 5502 5502 5502 5502 5501 5501 5501 5501 5500 5500 5500 5500 5500 5500 5500 5500 5499 5499 5499 5498 5498 5497 5496 5495 5494 5492 5490 5488 5486 5484 5481 5478 5474 5470 5466 5462 5457 5452